Weather History for KFQD - May, 2013

Change the Weather History Date:

Wednesday, May 8, 2013

  Actual Average (KAVL) Record (KAVL)
Temperature  
Mean Temperature 60 °F 61 °F  
Max Temperature 72 °F 73 °F 90 °F (1964)
Min Temperature 49 °F 49 °F 28 °F (1989)
Degree Days  
Heating Degree Days 4 5  
Month to date heating degree days 43  
Since 1 July heating degree days 4115  
Cooling Degree Days 0 1  
Month to date cooling degree days 7  
Year to date cooling degree days 15  
Growing Degree Days 10 (Base 50)    
Moisture  
Dew Point 53 °F    
Average Humidity 78    
Maximum Humidity 100    
Minimum Humidity 50    
Precipitation  
Precipitation 0.00 in 0.11 in 1.71 in (1973)
Month to date precipitation 0.91  
Year to date precipitation 15.50  
Snow  
Snow 0.00 in 0.00 in T in (1960)
Month to date snowfall 0.0  
Since 1 July snowfall 9.9  
Snow Depth -    
Sea Level Pressure  
Sea Level Pressure 29.98 in    
Wind  
Wind Speed 2 mph (West)    
Max Wind Speed 13 mph    
Max Gust Speed 16 mph    
Visibility 8 miles    
Events Fog , Rain    
T = Trace of Precipitation, MM = Missing Value Source: NWS Daily Summary

Daily Weather History Graph

Daily Weather History Graph

Search for Another Location

Airport or City:

Trip Planner

Search our weather history database for the weather conditions in past years. The results will help you decide how hot, cold, wet, or windy it might be!

Date:

Astronomy

May. 08, 2013 Rise Set
Actual Time 6:28 AM EDT 8:19 PM EDT
Civil Twilight 6:01 AM EDT 8:47 PM EDT
Nautical Twilight 5:27 AM EDT 9:21 PM EDT
Astronomical Twilight 4:51 AM EDT 9:57 PM EDT
Moon 5:33 AM EDT (5/8) 7:18 PM EDT (5/8)
Length of Visible Light 14h 46m
Length of Day
13h 50m
Waning Crescent, 2% of the Moon is Illuminated
May 8
Waning Crescent
May 9
New
May 18
First Quarter
May 25
Full
May 31
Last Quarter

Hourly Weather History & Observations

Time (EDT) Temp. Dew Point Humidity Pressure Visibility Wind Dir Wind Speed Gust Speed Precip Events Conditions
12:15 AM 53.6 °F 52.9 °F 97% 29.96 in 10.0 mi Calm Calm - N/A   Overcast
12:35 AM 54.1 °F 53.1 °F 96% 29.96 in 10.0 mi Calm Calm - N/A   Overcast
12:55 AM 54.1 °F 52.9 °F 95% 29.96 in 10.0 mi Calm Calm - N/A   Overcast
1:15 AM 54.0 °F 52.7 °F 95% 29.96 in 10.0 mi NE 4.6 mph - N/A   Overcast
1:35 AM 54.0 °F 52.7 °F 95% 29.96 in 10.0 mi Calm Calm - N/A   Overcast
1:55 AM 53.6 °F 52.7 °F 97% 29.94 in 10.0 mi SSW 6.9 mph - N/A   Overcast
2:15 AM 53.6 °F 52.7 °F 97% 29.94 in 10.0 mi Calm Calm - N/A   Overcast
2:35 AM 53.2 °F 52.7 °F 98% 29.94 in 7.0 mi Calm Calm - N/A   Light Drizzle
2:55 AM 53.6 °F 53.1 °F 98% 29.94 in 10.0 mi Calm Calm - N/A Rain Light Rain
3:15 AM 53.6 °F 52.9 °F 97% 29.94 in 10.0 mi Calm Calm - N/A Rain Light Rain
3:35 AM 53.2 °F 52.7 °F 98% 29.94 in 10.0 mi Calm Calm - N/A Rain Light Rain
3:55 AM 53.4 °F 52.7 °F 97% 29.94 in 10.0 mi Calm Calm - N/A   Overcast
4:15 AM 52.9 °F 52.7 °F 99% 29.94 in 5.0 mi North 3.5 mph - N/A   Overcast
4:35 AM 52.3 °F 52.0 °F 99% 29.94 in 4.0 mi NNW 3.5 mph - N/A   Overcast
4:55 AM 51.8 °F 51.8 °F 100% 29.94 in 1.0 mi NE 3.5 mph - N/A   Overcast
5:15 AM 51.1 °F 50.9 °F 99% 29.94 in 5.0 mi South 3.5 mph - N/A   Scattered Clouds
5:35 AM 51.1 °F 51.1 °F 100% 29.95 in 0.2 mi Calm Calm - N/A Fog Fog
5:55 AM 50.7 °F 50.7 °F 100% 29.95 in 0.2 mi SSW 3.5 mph - N/A Fog Fog
6:15 AM 50.9 °F 50.9 °F 100% 29.95 in 0.2 mi Calm Calm - N/A Fog Fog
6:35 AM 51.1 °F 51.1 °F 100% 29.95 in 0.5 mi Calm Calm - N/A Fog Fog
6:55 AM 49.8 °F 49.8 °F 100% 29.96 in 0.2 mi ESE 3.5 mph - N/A Fog Fog
7:15 AM 50.2 °F 50.2 °F 100% 29.97 in 0.2 mi NE 3.5 mph - N/A Fog Fog
7:35 AM 50.2 °F 50.2 °F 100% 29.98 in 0.2 mi Calm Calm - N/A Fog Fog
7:55 AM 51.6 °F 51.6 °F 100% 29.98 in 0.2 mi NNE 3.5 mph - N/A Fog Fog
8:15 AM 51.1 °F 51.1 °F 100% 30.00 in 0.2 mi Calm Calm - N/A Fog Fog
8:35 AM 52.5 °F 52.5 °F 100% 30.00 in 0.2 mi Calm Calm - N/A Fog Fog
8:55 AM 53.6 °F 53.4 °F 99% 29.99 in 0.5 mi Calm Calm - N/A Fog Fog
9:15 AM 55.2 °F 54.0 °F 96% 30.00 in 10.0 mi Calm Calm - N/A   Mostly Cloudy
9:35 AM 56.3 °F 53.2 °F 89% 30.01 in 10.0 mi Calm Calm - N/A   Scattered Clouds
9:55 AM 59.2 °F 55.0 °F 86% 30.00 in 10.0 mi Calm Calm - N/A   Clear
10:15 AM 60.4 °F 53.8 °F 79% 30.00 in 10.0 mi Calm Calm - N/A   Mostly Cloudy
10:35 AM 59.4 °F 54.5 °F 84% 30.00 in 10.0 mi SW 3.5 mph - N/A   Overcast
10:55 AM 60.3 °F 55.0 °F 83% 30.01 in 10.0 mi WSW 4.6 mph - N/A   Overcast
11:15 AM 60.1 °F 55.0 °F 83% 30.01 in 10.0 mi Calm Calm - N/A   Overcast
11:35 AM 63.0 °F 56.1 °F 78% 30.01 in 10.0 mi SW 4.6 mph - N/A   Mostly Cloudy
11:55 AM 66.2 °F 54.9 °F 67% 30.00 in 10.0 mi SW 6.9 mph - N/A   Scattered Clouds
12:15 PM 67.1 °F 52.7 °F 60% 30.00 in 10.0 mi SSW 5.8 mph - N/A   Overcast
12:35 PM 66.9 °F 52.9 °F 61% 30.00 in 10.0 mi WSW 5.8 mph - N/A   Overcast
12:55 PM 66.9 °F 54.0 °F 63% 30.00 in 10.0 mi WSW 4.6 mph - N/A   Overcast
1:15 PM 67.5 °F 53.8 °F 61% 29.99 in 10.0 mi SW 5.8 mph - N/A   Overcast
1:35 PM 67.8 °F 54.0 °F 61% 29.99 in 10.0 mi SW 4.6 mph - N/A   Overcast
1:55 PM 68.0 °F 54.0 °F 61% 29.99 in 10.0 mi SW 3.5 mph - N/A   Overcast
2:15 PM 68.5 °F 53.2 °F 58% 29.99 in 10.0 mi WSW 3.5 mph - N/A   Overcast
2:35 PM 70.0 °F 54.3 °F 57% 29.99 in 10.0 mi West 6.9 mph - N/A   Mostly Cloudy
2:55 PM 70.0 °F 53.2 °F 55% 29.98 in 10.0 mi West 5.8 mph - N/A   Mostly Cloudy
3:15 PM 69.1 °F 54.1 °F 59% 29.99 in 10.0 mi WSW 4.6 mph - N/A   Overcast
3:35 PM 69.8 °F 53.8 °F 57% 29.98 in 10.0 mi SSW 6.9 mph - N/A   Overcast
3:55 PM 70.3 °F 54.7 °F 58% 29.97 in 10.0 mi West 4.6 mph - N/A   Overcast
4:35 PM 70.9 °F 54.0 °F 55% 29.97 in 10.0 mi West 5.8 mph - N/A   Overcast
4:55 PM 71.6 °F 54.0 °F 54% 29.97 in 10.0 mi WSW 5.8 mph - N/A   Overcast
5:15 PM 71.6 °F 54.9 °F 55% 29.97 in 10.0 mi West 5.8 mph - N/A   Scattered Clouds
5:35 PM 72.7 °F 55.0 °F 54% 29.97 in 10.0 mi SW 5.8 mph - N/A   Scattered Clouds
5:55 PM 72.5 °F 54.3 °F 53% 29.97 in 10.0 mi West 5.8 mph - N/A   Mostly Cloudy
6:15 PM 71.8 °F 53.1 °F 52% 29.97 in 10.0 mi WNW 12.7 mph 16.1 mph N/A   Overcast
6:35 PM 72.0 °F 52.5 °F 50% 29.97 in 10.0 mi NNW 3.5 mph - N/A   Overcast
6:55 PM 70.9 °F 52.2 °F 51% 29.97 in 10.0 mi West 4.6 mph - N/A   Mostly Cloudy
7:15 PM 69.3 °F 54.9 °F 60% 29.98 in 10.0 mi West 9.2 mph - N/A   Mostly Cloudy
7:35 PM 68.5 °F 53.1 °F 58% 29.99 in 10.0 mi WNW 8.1 mph - N/A   Mostly Cloudy
7:55 PM 68.2 °F 52.9 °F 58% 29.99 in 10.0 mi WNW 6.9 mph - N/A   Mostly Cloudy
8:15 PM 67.6 °F 53.1 °F 59% 30.00 in 10.0 mi West 5.8 mph - N/A   Overcast
8:35 PM 67.3 °F 52.9 °F 60% 30.00 in 10.0 mi WNW 8.1 mph - N/A   Overcast
8:55 PM 66.6 °F 53.2 °F 62% 30.01 in 10.0 mi WNW 5.8 mph - N/A   Overcast
9:15 PM 65.8 °F 53.4 °F 64% 30.02 in 10.0 mi WNW 6.9 mph - N/A   Overcast
9:35 PM 64.9 °F 53.2 °F 66% 30.02 in 10.0 mi NW 6.9 mph - N/A   Mostly Cloudy
9:55 PM 64.4 °F 53.1 °F 67% 30.03 in 10.0 mi Calm Calm - N/A   Scattered Clouds
10:15 PM 63.0 °F 53.2 °F 71% 30.03 in 10.0 mi Calm Calm - N/A   Clear
10:35 PM 62.1 °F 53.6 °F 74% 30.04 in 10.0 mi Calm Calm - N/A   Clear
10:55 PM 59.7 °F 54.0 °F 81% 30.04 in 10.0 mi Calm Calm - N/A   Clear
11:15 PM 59.7 °F 53.8 °F 81% 30.04 in 10.0 mi Calm Calm - N/A   Clear